FENGYUN 1C DEB

Satellite information

Favourite Embed

Satellite Type and Status

DEBRISIN ORBIT

Key statistics

Satellite FENGYUN 1C DEB at a glance.

Uptime

9659

Days in orbit

Revolutions

≈ 14.3

Per day

Orbit

SSO

Sun Synchronous Orbit

Inclination

98.9

Latest

Satellite identification and parameters

Extended collection of information and parameters for FENGYUN 1C DEB.

Object identification

Identified? True

Debris? True

Object name: FENGYUN 1C DEB

International designator: 1999-025BGV

Object number (NORAD): 31099

Object ID (CCSDS): 31099

Country: PEOPLES REPUBLIC OF CHINA (PRC)

Current information (Y/N): Y

RCS size: SMALL

Orbital parameters

Period: 100.855 minutes

Inclination: 98.9396 deg

SMA: 7177.259 km

Apoapsis: 845.526 km

Periapsis: 752.722 km

RAAN: 182.362 deg

Eccentricy: 0.00646517

Argument of periapsis: 81.8233 deg

Mean anomaly: 70.9193 deg

Mean motion: 14.27791631 rev/day

Mean motion (dot): 0.00000905 rev/day2

B* drag term: 0.00037651966 1/REarth

Two-line elements (TLE)

Creation date: Oct. 18, 2025, 10:30 a.m.

Reference frame: TEME

Reference center: EARTH

Epoch: Oct. 18, 2025, 4:05 a.m. UTC

TLE line 0: 0 FENGYUN 1C DEB

TLE line 1: 1 31099U 99025BGV 25291.17036383 .00000905 00000-0 37652-3 0 9997

TLE line 2: 2 31099 98.9396 182.3620 0064652 81.8233 70.9193 14.27791631966784

Live tracking on map

Real-time ground track for satellite FENGYUN 1C DEB.

In-orbit conjunctions

A list of the most updated potential collisions computed for object FENGYUN 1C DEB.

Target Orbit TCA Probability of collision Miss distance Type
NOAA 16 DEB SSO 2024-12-15 21:00:56 0.0001934109 172.0 (m) DEBRIS
DMSP 5D-2 F10 (USA 68) SSO 2024-11-25 15:05:53 0.0001381898 340.0 (m) PAYLOAD
CZ-6A DEB SSO 2024-06-22 17:50:16 0.0001112499 176.0 (m) DEBRIS

Associated space launch

Chinese polar orbiting meteorological satellite

FENGYUN 1C DEB was lifted into orbit during the mission ‘Long March 4B | Feng Yun 1C’, on board a Long March 4B space rocket.

The launch took place on May 10, 1999, 1:33 a.m. from Launch Complex 7.

For more information about the launch, click the button.

Launch to space Long March 4B | Feng Yun 1C
Long March 4B | Feng Yun 1C

Agency: N/A

Status: Launch Successful

Launch date: May 10, 1999, 1:33 a.m. UTC

Rocket: Long March 4B

Launch pad: Launch Complex 7

Location: Taiyuan Satellite Launch Center, People's Republic of China

...

Latest news about this satellite

There are no fresh news available about this satellite. Check back as we update our databases every day.


Newsletter sign-up

Weekly statistics, charts and insights to help you stay on top of the space industry.